User: anonymous   Login
Location: Unspecified
(0.0000°N, 0.0000°E)
Time: 18:55:26
(UTC+00:00)
Language:

E-STAR-II - Orbit

View from above orbital plane
View from above orbital plane
View from above satellite
View from above satellite

Ground track
Ground track

The orbit data is extracted from the following two-line orbital elements,

1 41459U 16025D   17145.89639212 +.00002890 +00000-0 +15828-3 0  9991
2 41459 098.1878 182.1506 0175245 005.0062 355.2863 15.02944658059220
Epoch (UTC): 25 May 2017 21:30:48
Eccentricity: 0.0175245
inclination: 98.1878°
perigee height: 436 km
apogee height: 679 km
right ascension of ascending node: 182.1506°
argument of perigee: 5.0062°
revolutions per day: 15.02944658
mean anomaly at epoch: 355.2863°
orbit number at epoch: 5922

The dashed part of the orbit path shows where the satellite is in the earth's shadow,  

DLR